This demonstration page uses our WeatherBlox Daily Observations layout. Learn more.

39.29038, -76.61219

Hourly Observations for August 11, 2020

Temp ( °F °C ) Dew Point ( °F °C ) Humidity (%) Winds ( mph kmh ) Pressure ( in mb ) Visibility ( mi km ) Precip ( " mm )
12:54 am 00:54 Clear 78 25.6 73 22.8 85 85 Calm 29.98 1015 10 16.0934 0 0
1:54 am 01:54 Clear 78 25.6 74 23.3 87 87 Calm 29.97 1015 10 16.0934 0 0
2:54 am 02:54 Clear 77 25 73 22.8 88 88 Calm 29.96 1015 10 16.0934 0 0
3:54 am 03:54 Mostly Clear 77 25 74 23.3 90 90 SE 3 6 29.94 1014 10 16.0934 0 0
4:54 am 04:54 Partly Cloudy 76 24.4 73 22.8 91 91 Calm 29.94 1014 10 16.0934 0 0
5:07 am 05:07 Partly Cloudy 75 23.9 73 22.8 94 94 Calm 29.94 1014 7 11.26538 0 0
5:28 am 05:28 Mostly Cloudy 76 24.4 73 22.8 91 91 Calm 29.94 1014 7 11.26538 0 0
5:54 am 05:54 Partly Cloudy 76 24.4 73 22.8 91 91 ESE 3 6 29.94 1014 7 11.26538 0 0
6:54 am 06:54 Mostly Cloudy with Mist and Fog 76 24.4 73 22.8 91 91 SSE 3 6 29.96 1014 6 9.65604 0 0
7:54 am 07:54 Mostly Cloudy 78 25.6 74 23.3 87 87 S 3 6 29.96 1015 7 11.26538 0 0
8:32 am 08:32 Partly Cloudy 80 26.7 73 22.8 79 79 SSW 5 7 29.95 1014 10 16.0934 0 0
8:54 am 08:54 Partly Cloudy 81 27.2 74 23.3 79 79 Calm 29.97 1015 10 16.0934 0 0
9:54 am 09:54 Partly Cloudy 84 28.9 73 22.8 70 70 VRB 6 9 29.97 1015 10 16.0934 0 0
10:54 am 10:54 Mostly Cloudy 86 30 73 22.8 65 65 VRB 6 9 29.97 1015 10 16.0934 0 0
11:54 am 11:54 Mostly Cloudy 89 31.7 73 22.8 59 59 S 7 11 29.97 1015 10 16.0934 0 0
12:54 pm 12:54 Mostly Cloudy 90 32.2 72 22.2 56 56 SSW 7 11 29.95 1014 10 16.0934 0 0
1:54 pm 13:54 Mostly Cloudy 90 32.2 72 22.2 56 56 VRB 7 11 29.93 1014 10 16.0934 0 0
2:54 pm 14:54 Mostly Cloudy 91 32.8 72 22.2 54 54 VRB 5 7 29.92 1013 10 16.0934 0 0
3:54 pm 15:54 Partly Cloudy 92 33.3 72 22.2 52 52 S 8 13 29.9 1013 10 16.0934 0 0
4:54 pm 16:54 Partly Cloudy 92 33.3 73 22.8 54 54 S 7 11 29.9 1013 10 16.0934 0 0
5:54 pm 17:54 Partly Cloudy 91 32.8 73 22.8 56 56 SSW 6 9 29.91 1013 10 16.0934 0 0
6:54 pm 18:54 Partly Cloudy 88 31.1 74 23.3 63 63 S 6 9 29.89 1012 10 16.0934 0 0
7:54 pm 19:54 Mostly Cloudy 86 30 74 23.3 67 67 SSE 6 9 29.91 1013 10 16.0934 0 0
8:54 pm 20:54 Mostly Cloudy 84 28.9 74 23.3 72 72 SSE 6 9 29.92 1013 10 16.0934 0 0
9:54 pm 21:54 Partly Cloudy 83 28.3 75 23.9 77 77 Calm 29.94 1014 10 16.0934 0 0
10:54 pm 22:54 Partly Cloudy 83 28.3 76 24.4 79 79 S 5 7 29.94 1014 10 16.0934 0 0
11:54 pm 23:54 Mostly Clear 82 27.8 74 23.3 77 77 SSW 5 7 29.95 1014 10 16.0934 0 0

Powered by AerisWeather